Tracking 19576 objects as of 17-Feb-2019
HD Live streaming from Space Station
objects crossing your sky now

DIAPASON (D1-A)

Track DIAPASON (D1-A) now!
10-day predictions
DIAPASON (D1-A) is classified as:


NORAD ID: 2016
Int'l Code: 1966-013A
Perigee: 505.1 km
Apogee: 2,357.1 km
Inclination: 34.1 °
Period: 114.3 minutes
Semi major axis: 7802 km
RCS: 1.2804 m2 (large)
Launch date: February 17, 1966
Source: France (FR)
Launch site: HAMMA GUIRA SPACE TRACK RANGE (HGSTR)
aabbcc
Your satellite tracking list
Your tracking list is empty




NASA's NSSDC Master Catalog

Two Line Element Set (TLE):
1  2016U 66013A   19048.48982036  .00000036  00000-0  18823-4 0  9992
2  2016  34.0900  85.5153 1186849  64.5662 307.2961 12.59742638401831
Source of the keplerian elements: AFSPC